sat.trackr.live / text

‹ back to catalog

STARLINK-31511

NORAD 59462 · 2024-068H

PAYLOAD ACTIVE UNKNOWN

§ Identity

Operator
Country
US
Launch date
2024-04-10
Launch site
AFETR
Launch vehicle
Mass (kg)
RCS (m²)

Purposes: comms

External: N2YO · Heavens-Above · Gunter

§ Orbital elements

Epoch: 2026-09-21T17:40:31.903104Z

Period
94.27 min
Inclination
43.0039°
Eccentricity
0.0000943
Mean motion
15.27577804 rev/d
Perigee alt
482.4 km
Apogee alt
483.7 km
Semi-major
6,861.2 km
B*
2.9682e-5
RAAN
7.5141°
Arg perigee
277.2346°
Mean anomaly
82.8399°
Rev number
13,850

§ Raw data

STARLINK-315111 59462U 24068H   26264.73648036  .00000555  00000+0  29682-4 0  99982 59462  43.0039   7.5141 0000943 277.2346  82.8399 15.27577804138504

JSON: /api/v1/satellites/59462 · /tle

For live sub-satellite position, see the globe view (requires WebGL).

§ Visibility from observer

Set your observer location to see the next 7 days of passes ≥ 10°. The values pass through the URL so the page stays shareable.

No JS? Fill the form by hand. The geolocation button needs JavaScript.